TimePST,TemperatureF,Dew PointF,Humidity,Sea Level PressureIn,VisibilityMPH,Wind Direction,Wind SpeedMPH,Gust SpeedMPH,PrecipitationIn,Events,Conditions,WindDirDegrees,DateUTC
12:56 AM,21.0,18.0,88,30.22,10.0,SSE,3.5,-,N/A,,Clear,160,2013-03-09 08:56:00
1:56 AM,21.0,18.0,88,30.23,10.0,SSE,4.6,-,N/A,,Clear,160,2013-03-09 09:56:00
2:56 AM,19.9,17.1,89,30.24,10.0,SSE,4.6,-,N/A,,Clear,160,2013-03-09 10:56:00
4:56 AM,12.9,10.9,92,30.32,10.0,SE,3.5,-,N/A,,Clear,130,2013-03-09 12:56:00
5:56 AM,15.1,10.9,84,30.34,10.0,Calm,Calm,-,N/A,,Clear,0,2013-03-09 13:56:00
6:56 AM,19.0,14.0,81,30.37,10.0,SSE,4.6,-,N/A,,Clear,160,2013-03-09 14:56:00
7:56 AM,28.0,21.9,78,30.38,10.0,SE,4.6,-,N/A,,Clear,140,2013-03-09 15:56:00
8:56 AM,35.1,24.1,64,30.38,10.0,SE,5.8,-,N/A,,Clear,140,2013-03-09 16:56:00
9:56 AM,42.1,25.0,51,30.39,10.0,Calm,Calm,-,N/A,,Clear,0,2013-03-09 17:56:00
10:56 AM,46.9,18.0,32,30.39,10.0,West,5.8,-,N/A,,Clear,270,2013-03-09 18:56:00
11:56 AM,50.0,12.0,22,30.40,10.0,NW,4.6,-,N/A,,Clear,310,2013-03-09 19:56:00
12:56 PM,52.0,10.9,19,30.39,10.0,NNW,5.8,-,N/A,,Clear,330,2013-03-09 20:56:00
1:56 PM,54.0,10.9,18,30.39,10.0,NNE,6.9,-,N/A,,Clear,20,2013-03-09 21:56:00
2:56 PM,55.9,10.9,17,30.40,10.0,North,10.4,-,N/A,,Clear,360,2013-03-09 22:56:00
3:56 PM,54.0,12.0,19,30.41,10.0,NW,5.8,-,N/A,,Clear,320,2013-03-09 23:56:00
4:56 PM,54.0,15.1,22,30.41,10.0,North,3.5,-,N/A,,Clear,360,2013-03-10 00:56:00
5:56 PM,48.9,19.0,31,30.43,10.0,ENE,3.5,-,N/A,,Clear,60,2013-03-10 01:56:00
6:56 PM,39.9,19.0,43,30.46,10.0,Calm,Calm,-,N/A,,Clear,0,2013-03-10 02:56:00
7:56 PM,30.9,18.0,59,30.46,10.0,Calm,Calm,-,N/A,,Clear,0,2013-03-10 03:56:00
8:56 PM,28.9,18.0,64,30.47,10.0,Calm,Calm,-,N/A,,Clear,0,2013-03-10 04:56:00
9:56 PM,28.0,19.0,69,30.48,10.0,SSE,4.6,-,N/A,,Clear,160,2013-03-10 05:56:00
10:56 PM,27.0,18.0,69,30.48,10.0,South,5.8,-,N/A,,Clear,170,2013-03-10 06:56:00
11:56 PM,27.0,18.0,69,30.47,10.0,SSE,3.5,-,N/A,,Clear,150,2013-03-10 07:56:00